Other Public Products
Issued by NWS Grand Forks, ND

Home | Current Version | Previous Version | Graphics & Text | Print | Product List | Glossary On
Versions: 1 2 3 4 5 6 7 8 9 10 11 12 13 14 15 16 17 18 19 20 21 22 23 24 25 26 27 28 29 30 31 32 33 34 35 36 37 38 39 40 41 42 43 44 45 46 47 48 49 50
000
FPUS83 KFGF 080431
OPUFGF
PRAIRIE TO PINES WEATHER ROUNDUP
NATIONAL WEATHER SERVICE EASTERN NORTH DAKOTA/GRAND FORKS ND
1100 PM CDT TUE JUL 07 2015

 **SATELLITE DATA USED TO AUGMENT SKY COVER AT AUTOMATED STATIONS**
 *****  WEATHER ACROSS EASTERN NORTH DAKOTA  *****

CITY           SKY/WX    TMP DP  RH WIND       PRES   REMARKS
GRAND FORKS    PTCLDY    61  46  57 S9        30.00S
GRAND FORKS AF CLEAR     57  47  69 S6        30.01R
GRAND CITY NWS   N/A     59 N/A N/A S3          N/A
BUXTON         NOT AVBL
DEVILS LAKE    PTCLDY    66  52  59 S12       29.97F
FARGO          PTCLDY    63  47  55 S12       30.05S
WAHPETON ARPT  CLEAR     55  46  71 S8        30.08S
$$

 *****  WEATHER ACROSS CENTRAL AND WESTERN NORTH DAKOTA  *****

CITY           SKY/WX    TMP DP  RH WIND       PRES   REMARKS
JAMESTOWN      PTCLDY    62  50  64 S8        30.02S
BISMARCK       CLOUDY    68  56  65 S16       29.98S
MINOT          RAIN      59  58  96 SE16      29.95F FOG
MINOT AFB      MOCLDY    59  59 100 SE7       29.94F
GARRISON         N/A     61  59  93 SW6       29.97R
WILLISTON      PTCLDY    65  53  65 SE5       29.96R
DICKINSON      PTCLDY    60  57  89 E7        29.98R
HETTINGER      CLOUDY    63  59  87 SE10      29.99R
$$

 *****  OTHER OBSERVATIONS NORTHEAST NORTH DAKOTA  *****

CITY           SKY/WX    TMP DP  RH WIND       PRES   REMARKS
WALHALLA       FAIR      63  52  67 MISG      29.96F
LANGDON        FAIR      61  54  77 S10       29.98F
CAVALIER       FAIR      61  50  67 S7        29.98S
GRAFTON        FAIR      57  52  82 S9        30.00S
CANDO          MOCLDY    63  57  82 W13       29.99S
FORT TOTTEN      N/A     62  52  70 S7        29.95S
ROLLA          MOCLDY    57  57 100 S17G24    29.96F
RUGBY          NOT AVBL
 ***** THE ABOVE OBSERVATIONS ARE NON NWS ARE NOT QUALITY
        CONTROLLED AND MAY MIS-REPORT RAIN FOR SNOW...
$$

 *****  OTHER OBSERVATIONS SOUTHEAST NORTH DAKOTA *****

CITY           SKY/WX    TMP DP  RH WIND       PRES   REMARKS
COOPERSTOWN    NOT AVBL
VALLEY CITY    FAIR      57  50  77 S8        30.04F
OAKES            N/A     54  54 100 S9        30.06S
GWINNER        FAIR      59  52  77 S9        30.07S
SHEYENNE NWR     N/A     56  50  79 S6        29.95S
BUFFALO        NOT AVBL
WYNDMERE         N/A     54  50  87 S3          N/A
 ***** THE ABOVE OBSERVATIONS ARE NON NWS ARE NOT QUALITY
       CONTROLLED AND MAY MIS-REPORT RAIN FOR SNOW...
$$

  *****  WEATHER ACROSS NORTHERN MINNESOTA  *****

CITY           SKY/WX    TMP DP  RH WIND       PRES   REMARKS
FLAG ISLAND    CLEAR     63  52  67 SW8       30.01F
WARROAD        CLEAR     57  50  77 CALM      30.03F
ROSEAU         CLEAR     55  48  76 S7        30.02F
HALLOCK        CLEAR     55  52  88 S7        29.99F
THF RVR FALLS  CLEAR     55  48  76 S8        30.04F
HALSTAD        NOT AVBL
FOSSTON        CLEAR     50  46  87 CALM      30.08S
BAUDETTE       CLEAR     55  48  77 S5        30.04S
WASKISH        CLEAR     52  48  87 CALM      30.07S
CROOKSTON      CLEAR     61  48  63 S13       30.04S
$$
  *****  WEATHER ACROSS CENTRAL AND WEST MINNESOTA  *****

CITY           SKY/WX    TMP DP  RH WIND       PRES   REMARKS
BEMIDJI        CLEAR     57  47  68 S3        30.08S
PARK RAPIDS    CLEAR     58  47  66 CALM      30.09S
WADENA         CLEAR     55  48  76 CALM      30.09F
DETROIT LAKES  CLEAR     59  48  67 S6        30.09F
MOORHEAD       PTCLDY    59  48  67 S9        30.06F
FERGUS FALLS   PTCLDY    57  48  72 S7        30.09S
ELBOW LAKE     FAIR      54  49  82 S7        30.09F
MORRIS MN      PTCLDY    57  52  82 S5        30.10S
STAPLES        PTCLDY    54  46  76 CALM      30.10S
WHEATON        PTCLDY    57  48  72 SE10      30.10F
$$
  *****  WEATHER ELSEWHERE ACROSS MINNESOTA  *****

CITY           SKY/WX    TMP DP  RH WIND       PRES   REMARKS
DULUTH         CLEAR     58  48  69 SW5       30.10S
INTRNTL FALLS  CLEAR     50  46  86 CALM      30.05S
ELY            CLEAR     52  46  82 CALM      30.09S
CLOQUET        CLEAR     55  46  71 SW3       30.11S
BRAINERD       CLEAR     53  50  89 CALM      30.11S
HIBBING        CLEAR     48  45  89 CALM      30.09F
ALEXANDRIA     PTCLDY    59  50  72 S3        30.12S
SAINT CLOUD    PTCLDY    55  52  89 CALM      30.12R
MINNEAPOLIS    PTCLDY    64  47  53 E5        30.12R
$$

  *****  WEATHER ACROSS SOUTH DAKOTA  *****

CITY           SKY/WX    TMP DP  RH WIND       PRES   REMARKS
SIOUX FALLS    PTCLDY    60  50  69 SE8       30.11S
BROOKINGS      FAIR      57  48  72 SE7       30.13S
WATERTOWN      PTCLDY    59  50  72 SE6       30.10R
HURON          PTCLDY    60  51  72 SE8       30.08S
SISSETON         N/A     55  50  83 SW6       30.08R
ABERDEEN       CLEAR     55  50  83 SE9       30.07S
MITCHELL       PTCLDY    61  55  81 S6        30.10S
PIERRE         CLEAR     63  57  81 SE12      30.02R
MOBRIDGE       MOCLDY    68  58  70 SE20      30.00R
RAPID CITY     MOCLDY    65  57  75 W5        30.04R
$$

  *****  SOME WEATHER IN NEARBY STATES *****

CITY           SKY/WX    TMP DP  RH WIND       PRES   REMARKS
GLASGOW MT     MOCLDY    69  46  43 NW7       29.99R
GREAT FALLS MT CLEAR     60  49  66 SE5       30.10S
CHEYENNE WY    MOCLDY    56  54  93 S5        30.15R FOG
SCOTTSBLUFF NE CLOUDY    64  52  64 E9        30.08R
OMAHA NE       CLEAR     63  53  70 E6        30.10R
DES MOINES IA  MOCLDY    64  51  62 NE6       30.11R
DAVENPORT IA   CLOUDY    59  55  87 NE7       30.10S
CHICAGO IL     MOCLDY    56  46  69 N6        30.11R
EAU CLAIRE WI  CLEAR     55  51  86 CALM      30.12R
LA CROSSE WI   CLOUDY    64  55  72 CALM      30.11R
$$

  *****  SOME NATIONAL WEATHER *****

CITY           SKY/WX    TMP DP  RH WIND       PRES   REMARKS
LA GUARDIA NY  PTCLDY    82  68  62 SW7       29.96S
RALEIGH NC     MOCLDY    80  72  76 SW10      30.11S
ATLANTA GA     MOCLDY    80  70  71 SW6       30.18R
NEW ORLEANS LA PTCLDY    83  74  74 SE10      30.12R
OKLAHOMA CITY  CLOUDY    67  67 100 NE10      29.97S
ALBUQUERQUE NM TSTM      67  57  70 NW15      30.18R
SALT LAKE CITY CLOUDY    76  52  43 SE8       29.96R
LOS ANGELES CA PTCLDY    66  61  84 SW9       29.89R
BOISE ID       CLOUDY    83  46  27 NW5       29.83R
SEATTLE WA     MOCLDY    69  56  62 NW5       29.91S
$$

*** WEATHER ACROSS MANITOBA...SASKATCHEWAN AND ONTARIO ***
                ***ONTARIO***

CITY           SKY/WX    TMP DP  RH WIND       PRES   REMARKS
GERALDTON      PTCLDY    57  48  72 SW6       30.01R
THUNDER BAY    CLEAR     57  50  77 W6        30.06R
SIOUX LOOKOUT  PTCLDY    59  46  63 SW5       30.02R
TORONTO        MOCLDY    63  57  82 N17G25    29.95R
BIG TROUT LK   PTCLDY    64  50  59 NW12G23   29.80R
PICKLE LAKE    NOT AVBL
DRYDEN         CLEAR     59  45  58 SW9       30.02S
KENORA         PTCLDY    61  46  59 SW9       30.01F
$$
                *** MANITOBA***

CITY           SKY/WX    TMP DP  RH WIND       PRES   REMARKS
BRANDON        MOCLDY    64  57  77 S7        29.92R
DAUPHIN        PTCLDY    57  55  94 S6        29.91R
ISLAND LAKE    MOCLDY    54  52  94 N13G20    29.88R
PILOT MOUND      N/A     59  55  88 S8          N/A
THE PAS        MOCLDY    61  45  55 NW9       29.94R
THOMPSON       PTCLDY    45  41  87 VRB2      29.87R
WINNIPEG       PTCLDY    63  52  67 S10       29.95S
LYNN LAKE      CLEAR     46  41  81 W5        29.90R
CHURCHILL      MOCLDY    48  43  81 W9        29.70S
GILLAM         CLEAR     46  41  81 SW8       29.82F
$$
                ***SASKATCHEWAN***

CITY           SKY/WX    TMP DP  RH WIND       PRES   REMARKS
ESTEVAN        MOCLDY    59  57  94 VRB2      29.94R
KINDERSLEY     PTCLDY    50  45  81 NE6       30.06R
LLOYDMINSTER   PTCLDY    52  41  66 W6        30.03R
PRINCE ALBERT  PTCLDY    48  41  76 NW5       30.00R
REGINA         CLEAR     55  50  82 N9        30.02R SMOKE


USA.gov is the U.S. government's official web portal to all federal, state and local government web resources and services.